{"data":{"norad_id":68301,"epoch":"2026-05-25T02:05:08.719008Z","epoch_age_seconds":70997,"freshness":"FRESH","line1":"1 68301U 26057H   26145.08690647  .00167187  00000+0  10969-2 0  9992","line2":"2 68301  97.2864 271.3586 0001155  54.2502 305.8870 15.75254227 10314","mean_motion":15.75254227,"eccentricity":0.0001155,"inclination_deg":97.2864,"raan_deg":271.3586,"arg_perigee_deg":54.2502,"mean_anomaly_deg":305.887,"bstar":0.0010969,"rev_number":1031,"period_min":91.413815961784,"perigee_km":343.13145006592,"apogee_km":344.6842424254,"semimajor_km":6722.0448462457,"source":"CELESTRAK","updated_at":"2026-05-25T13:38:21.916994Z"}}